Weather History for KDVP - April, 2014

Change the Weather History Date:

Saturday, April 12, 2014

  Actual Average (KOTG) Record (KOTG)
Temperature  
Mean Temperature 54 °F -  
Max Temperature 65 °F 52 °F 82 °F (1985)
Min Temperature 43 °F 32 °F 19 °F (2004)
Degree Days  
Heating Degree Days 11    
Growing Degree Days 4 (Base 50)    
Moisture  
Dew Point 42 °F    
Average Humidity 67    
Maximum Humidity 91    
Minimum Humidity 45    
Precipitation  
Precipitation 0.00 in - - ()
Sea Level Pressure  
Sea Level Pressure 29.69 in    
Wind  
Wind Speed 12 mph (NE)    
Max Wind Speed 20 mph    
Max Gust Speed 24 mph    
Visibility 10 miles    
Events Thunderstorm    
Averages and records for this station are not official NWS values.
T = Trace of Precipitation, MM = Missing Value Source: NWS Daily Summary

Daily Weather History Graph

Daily Weather History Graph

Search for Another Location

Airport or City:

Trip Planner

Search our weather history database for the weather conditions in past years. The results will help you decide how hot, cold, wet, or windy it might be!

Date:

Astronomy

Apr. 12, 2014 Rise Set
Actual Time 6:44 AM CDT 8:03 PM CDT
Civil Twilight 6:15 AM CDT 8:33 PM CDT
Nautical Twilight 5:39 AM CDT 9:09 PM CDT
Astronomical Twilight 5:01 AM CDT 9:47 PM CDT
Moon 5:38 PM CDT (4/12) 5:17 AM CDT (4/12)
Length of Visible Light 14h 18m
Length of Day
13h 18m
Waxing Gibbous, 93% of the Moon is Illuminated
Apr 12
Waxing Gibbous
Apr 15
Full
Apr 22
Last Quarter
Apr 29
New
May 6
First Quarter

Hourly Weather History & Observations

Time (CDT) Temp. Windchill Dew Point Humidity Pressure Visibility Wind Dir Wind Speed Gust Speed Precip Events Conditions
12:13 AM 51.1 °F - 34.9 °F 54% 29.82 in 10.0 mi ESE 16.1 mph 21.9 mph N/A   Overcast
12:33 AM 50.5 °F - 34.7 °F 55% 29.81 in 10.0 mi ESE 15.0 mph - N/A   Mostly Cloudy
12:53 AM 50.5 °F - 34.2 °F 53% 29.80 in 10.0 mi ESE 19.6 mph - N/A   Overcast
1:13 AM 50.4 °F - 33.8 °F 53% 29.79 in 10.0 mi ESE 16.1 mph 24.2 mph N/A   Overcast
1:34 AM 49.5 °F - 33.6 °F 54% 29.79 in 10.0 mi SE 16.1 mph - N/A   Scattered Clouds
1:53 AM 49.3 °F - 34.2 °F 56% 29.77 in 10.0 mi ESE 17.3 mph - N/A   Mostly Cloudy
2:14 AM 49.8 °F - 35.1 °F 57% 29.78 in 10.0 mi SSE 12.7 mph 19.6 mph N/A   Mostly Cloudy
2:34 AM 48.4 °F - 37.4 °F 66% 29.75 in 10.0 mi SE 15.0 mph - N/A   Overcast
2:53 AM 48.2 °F - 38.1 °F 68% 29.75 in 10.0 mi SE 12.7 mph - N/A   Overcast
3:14 AM 48.4 °F - 38.3 °F 68% 29.73 in 10.0 mi ESE 13.8 mph - N/A   Overcast
3:32 AM 48.2 °F - 38.5 °F 69% 29.71 in 10.0 mi ESE 10.4 mph - N/A   Overcast
3:53 AM 47.5 °F - 38.8 °F 72% 29.70 in 10.0 mi SE 10.4 mph - N/A   Overcast
4:14 AM 47.8 °F - 38.5 °F 70% 29.67 in 10.0 mi ESE 13.8 mph - N/A   Overcast
4:34 AM 47.7 °F - 38.7 °F 71% 29.67 in 10.0 mi ESE 9.2 mph - N/A   Overcast
4:54 AM 47.3 °F - 39.4 °F 74% 29.66 in 10.0 mi ESE 8.1 mph - N/A   Overcast
5:12 AM 46.4 °F 41.9 °F 39.6 °F 77% 29.65 in 10.0 mi SE 9.2 mph - N/A Thunderstorm Mostly Cloudy
5:32 AM 45.9 °F 40.8 °F 40.1 °F 80% 29.64 in 10.0 mi SE 10.4 mph - N/A   Mostly Cloudy
5:53 AM 45.5 °F 39.6 °F 39.6 °F 80% 29.67 in 10.0 mi North 12.7 mph - N/A   Scattered Clouds
6:13 AM 46.4 °F - 39.2 °F 76% 29.66 in 10.0 mi Calm Calm - N/A   Clear
6:33 AM 45.1 °F 42.0 °F 39.4 °F 80% 29.66 in 10.0 mi NE 5.8 mph - N/A   Clear
6:53 AM 44.4 °F 40.5 °F 39.6 °F 83% 29.65 in 10.0 mi NE 6.9 mph - N/A   Clear
7:13 AM 43.7 °F 38.6 °F 39.9 °F 87% 29.66 in 10.0 mi NE 9.2 mph - N/A   Clear
7:32 AM 43.3 °F 38.1 °F 40.1 °F 88% 29.65 in 10.0 mi NE 9.2 mph - N/A   Clear
7:53 AM 43.0 °F 38.2 °F 40.3 °F 90% 29.66 in 7.0 mi NNE 8.1 mph - N/A   Clear
8:13 AM 44.6 °F 40.2 °F 41.0 °F 87% 29.66 in 10.0 mi NE 8.1 mph - N/A   Clear
8:33 AM 45.5 °F 41.8 °F 41.5 °F 86% 29.65 in 10.0 mi NE 6.9 mph - N/A   Clear
8:53 AM 46.6 °F - 41.9 °F 84% 29.66 in 10.0 mi NE 6.9 mph - N/A   Clear
9:13 AM 48.2 °F - 42.4 °F 80% 29.65 in 10.0 mi NE 8.1 mph - N/A   Clear
9:33 AM 49.3 °F - 42.8 °F 78% 29.65 in 10.0 mi NE 9.2 mph - N/A   Clear
9:51 AM 50.5 °F - 43.0 °F 75% 29.65 in 10.0 mi NE 9.2 mph - N/A   Clear
10:13 AM 52.5 °F - 43.5 °F 71% 29.66 in 10.0 mi NE 8.1 mph - N/A   Clear
10:33 AM 53.2 °F - 43.9 °F 71% 29.66 in 10.0 mi ENE 9.2 mph - N/A   Clear
10:53 AM 55.6 °F - 43.9 °F 65% 29.66 in 10.0 mi NE 8.1 mph - N/A   Clear
11:13 AM 56.5 °F - 43.5 °F 62% 29.66 in 10.0 mi NE 8.1 mph - N/A   Clear
11:33 AM 58.3 °F - 43.2 °F 57% 29.67 in 10.0 mi East 5.8 mph - N/A   Clear
11:52 AM 59.7 °F - 43.2 °F 54% 29.67 in 10.0 mi North 4.6 mph - N/A   Clear
12:13 PM 60.3 °F - 43.7 °F 54% 29.67 in 10.0 mi North 9.2 mph - N/A   Clear
12:34 PM 61.0 °F - 43.5 °F 53% 29.67 in 10.0 mi North 8.1 mph - N/A   Clear
12:53 PM 60.4 °F - 43.3 °F 53% 29.67 in 7.0 mi NE 6.9 mph - N/A   Clear
1:12 PM 61.5 °F - 43.0 °F 51% 29.67 in 7.0 mi North 8.1 mph - N/A   Clear
1:33 PM 61.0 °F - 42.6 °F 51% 29.67 in 10.0 mi North 12.7 mph - N/A   Clear
1:52 PM 62.4 °F - 42.4 °F 48% 29.66 in 10.0 mi NNE 8.1 mph - N/A   Clear
2:13 PM 63.5 °F - 43.0 °F 47% 29.66 in 10.0 mi NE 10.4 mph - N/A   Clear
2:32 PM 63.9 °F - 42.6 °F 46% 29.67 in 10.0 mi NE 11.5 mph 18.4 mph N/A   Clear
2:53 PM 64.9 °F - 42.8 °F 45% 29.67 in 10.0 mi NNE 11.5 mph 19.6 mph N/A   Clear
3:12 PM 64.2 °F - 43.5 °F 47% 29.66 in 10.0 mi NE 8.1 mph - N/A   Clear
3:33 PM 65.8 °F - 43.7 °F 45% 29.66 in 10.0 mi NE 9.2 mph - N/A   Clear
3:53 PM 64.2 °F - 44.1 °F 48% 29.65 in 10.0 mi North 13.8 mph 18.4 mph N/A   Clear
4:12 PM 64.0 °F - 44.2 °F 49% 29.64 in 10.0 mi NNE 11.5 mph 20.7 mph N/A   Clear
4:32 PM 63.9 °F - 43.7 °F 48% 29.65 in 10.0 mi NNE 13.8 mph - N/A   Clear
4:52 PM 64.6 °F - 44.4 °F 48% 29.65 in 10.0 mi NNE 12.7 mph 17.3 mph N/A   Clear
5:13 PM 62.8 °F - 44.6 °F 51% 29.66 in 10.0 mi North 13.8 mph - N/A   Clear
5:33 PM 62.4 °F - 44.1 °F 51% 29.66 in 10.0 mi NNE 12.7 mph - N/A   Clear
5:53 PM 62.2 °F - 45.0 °F 53% 29.66 in 10.0 mi NE 12.7 mph 17.3 mph N/A   Clear
6:12 PM 61.5 °F - 45.5 °F 56% 29.67 in 10.0 mi NE 11.5 mph - N/A   Clear
6:33 PM 60.8 °F - 46.2 °F 59% 29.68 in 10.0 mi NE 10.4 mph - N/A   Clear
6:53 PM 60.3 °F - 46.4 °F 60% 29.68 in 7.0 mi NE 10.4 mph - N/A   Scattered Clouds
7:12 PM 59.5 °F - 46.4 °F 62% 29.68 in 10.0 mi NNE 9.2 mph - N/A   Scattered Clouds
7:32 PM 58.5 °F - 46.0 °F 63% 29.69 in 10.0 mi NNE 8.1 mph - N/A   Clear
7:52 PM 57.4 °F - 46.4 °F 67% 29.70 in 10.0 mi NNE 6.9 mph - N/A   Clear
8:13 PM 56.7 °F - 46.4 °F 69% 29.70 in 10.0 mi NNE 6.9 mph - N/A   Scattered Clouds
8:33 PM 55.8 °F - 46.9 °F 72% 29.70 in 10.0 mi North 8.1 mph - N/A   Scattered Clouds
8:53 PM 54.5 °F - 47.3 °F 77% 29.71 in 10.0 mi North 6.9 mph - N/A   Clear
9:12 PM 53.1 °F - 46.8 °F 79% 29.70 in 10.0 mi NNE 8.1 mph - N/A   Clear
9:33 PM 51.8 °F - 46.4 °F 82% 29.70 in 10.0 mi NNE 9.2 mph - N/A   Clear
9:53 PM 51.3 °F - 46.0 °F 82% 29.70 in 10.0 mi NNE 10.4 mph - N/A   Clear
10:13 PM 50.4 °F - 45.7 °F 84% 29.71 in 10.0 mi NE 9.2 mph - N/A   Clear
10:33 PM 49.1 °F - 45.1 °F 86% 29.73 in 7.0 mi ENE 9.2 mph - N/A   Clear
10:54 PM 48.2 °F - 44.8 °F 88% 29.71 in 7.0 mi NE 6.9 mph - N/A   Clear
11:13 PM 47.1 °F - 44.2 °F 90% 29.70 in 7.0 mi NNE 8.1 mph - N/A   Clear
11:33 PM 46.6 °F - 44.1 °F 91% 29.71 in 7.0 mi NNE 5.8 mph - N/A   Clear
11:53 PM 46.4 °F 43.5 °F 43.9 °F 91% 29.73 in 5.0 mi NE 5.8 mph - N/A   Clear